Terminal Aerodrome Forecast
Issued by NWS Duluth, MN

Home | Current Version | Previous Version | Text Only | Print | Product List | Glossary On
Versions: 1 2 3 4 5 6 7 8 9 10 11 12 13 14 15 16 17 18 19 20 21 22 23 24 25 26 27 28 29 30 31 32 33 34 35 36 37 38 39 40 41 42
000
FTUS43 KDLH 201100
TAFDLH
TAF
KDLH 201120Z 2012/2112 30012G19KT P6SM BKN012
     FM201600 27013G20KT P6SM SCT030
     FM202000 28011KT P6SM SCT050
     FM202300 28010KT P6SM -TSRA BKN050CB
     FM210300 30008KT P6SM -RA BKN030=

USA.gov is the U.S. government's official web portal to all federal, state and local government web resources and services.